GFSGBSN_prec_radar_054.txt.gz
Reflectivity
-20 -20 -20 -20 -20 -20 -8 11 9 -19 -20 -20 -20 -20 -20 -20 -20 -20 -20 -20 -20 -20 -20 -20 -20 -20 -20 -20 -20 -20 -20 -20 -20 -20 -20 -20 -20 -20 -20 -20 -20 -20 -20 -20 -20 -20 -20
-20 -20 -20 -20 -20 -20 -20 -20 -11 9 -17 -20 -20 -20 -20 -20 -20 -20 -20 -20 -20 -20 -20 -20 -20 -20 -20 -20 -20 -20 -20 -20 -20 -20 -20 -20 -20 -20 -20 -20 -20 -20 -20 -20 -20 -20 -20
-20 -20 -20 -20 -20 -20 -20 -20 -19 6 8 -20 -20 -20 -20 -20 -20 -20 -20 -20 -20 -20 -20 -20 -20 -20 -20 -20 -20 -20 -20 -20 -20 -20 -20 -20 -20 -20 -20 -20 -20 -20 -20 -20 -20 -20 -20
-15 -20 -20 -20 -20 -20 -20 -20 -20 -13 12 10 -20 -20 -20 -20 -20 -20 -20 -20 -20 -20 -20 -20 -20 -20 -20 -20 -20 -20 -20 -20 -20 -20 -20 -20 -20 -20 -20 -20 -20 -20 -20 -20 -20 -19 -20
13 6 -20 -20 -20 -20 -20 -20 -20 -18 -20 7 -10 -20 -20 -20 -20 -20 -20 -20 -20 -20 -20 -20 -20 -20 -20 -20 -20 -20 -20 -20 -20 -20 -20 -20 -20 -20 -20 -20 -20 -13 -13 1 -1 3 -11
14 14 8 -16 -20 -20 -20 -20 -20 -20 -20 -13 -13 -20 -20 -20 -20 -20 -20 -20 -20 -20 -20 -20 -20 -20 -20 -20 -20 -20 -20 -20 -20 -20 -20 -20 -20 -20 -20 -19 -2 14 -20 3 2 -14 -20
11 14 12 -14 -20 -20 -20 -20 -20 -20 -20 -20 -18 -20 -20 -20 -20 -20 -20 -20 -20 -20 -20 -20 -20 -20 -20 -20 -20 -20 -20 -20 -20 -20 -20 -20 -20 -20 -20 -20 -10 1 -20 -20 -16 -20 -20
13 16 -2 8 -20 -20 -20 -20 -14 -20 -20 -20 0 -18 -20 -20 -20 -20 -20 -20 -20 -20 -20 -20 -20 -20 -20 -20 -20 -20 -20 -20 -20 -20 -20 -13 -17 -20 -20 -6 -14 -20 -20 -20 -20 -20 -20
8 13 15 16 3 -11 -20 -20 7 -20 -20 -20 -19 6 -20 -20 -20 -20 -20 -20 -20 -20 -20 -20 -20 -20 -20 -20 -20 -20 -20 -20 -20 -20 -20 -20 -20 -20 -20 -18 -20 -20 -20 -20 -20 -20 -20
3 14 13 14 13 9 -20 -20 -6 -20 -20 -20 -20 -19 -18 -20 -20 -20 -20 -20 -20 -20 -20 -20 -20 -20 -20 -20 -20 -20 -20 -20 -20 -20 -20 -20 -20 -20 -20 -20 -20 -20 -20 -20 -20 -20 -20
-7 9 8 7 12 10 9 -14 -20 6 -20 -20 -20 -20 3 -20 -20 -20 -20 -20 -20 -20 -20 -20 -20 -20 -20 -20 -20 -20 -20 -20 -20 -20 -20 -20 -20 -20 -20 -20 -20 -20 -20 -20 -20 -20 -20
19 15 10 10 13 15 15 9 1 -20 -17 -20 -20 -18 12 -10 -20 -20 -20 -20 -20 -20 -20 -20 -20 -20 -20 -20 -20 -20 -20 -20 -20 -20 -20 -20 -20 -20 -20 -20 -20 -20 -20 -20 -20 -20 -20
18 23 14 -1 12 14 16 16 10 -10 -20 -20 -20 -12 11 -15 -5 -20 -20 -20 -19 -20 -20 -20 -20 -20 -20 -20 -20 -20 -20 -20 -20 -20 -20 -20 -20 -20 -20 -20 -20 -20 -20 -20 -20 -20 -20
-19 19 21 11 -5 6 12 16 16 6 -10 -20 -20 7 15 -9 -9 -20 -20 1 -20 -20 -20 -20 -20 -20 -20 -20 -20 -20 -20 -20 -20 -20 -20 -20 -20 -20 -20 -20 -20 -20 -20 -20 -20 -20 -20
-20 -20 14 19 -3 19 13 13 18 11 6 -20 -20 6 9 -2 -20 -20 -20 7 -20 -20 -20 -20 -20 -20 -20 -20 -20 -20 -20 -20 -20 -20 -20 -20 -20 -20 -20 -20 -20 -20 -20 -20 -20 -20 -20
-19 -20 20 -1 19 -15 17 11 14 17 -13 -20 1 12 -2 7 -6 -20 8 -20 -20 -20 -20 -20 -20 -20 -20 -20 -20 -20 -20 -20 -20 -20 -20 -20 -20 -20 -20 -20 -20 -20 -20 -20 -20 -20 -20
-6 4 13 31 9 8 -17 21 16 20 -11 -20 8 24 -6 2 2 -20 -16 -8 -20 -16 -20 -20 -20 -20 -20 -20 -20 -20 -20 -20 -20 -20 -20 -20 -20 -20 -20 -20 -20 -20 -20 -20 -20 -20 -20
-6 17 19 12 13 17 -20 18 19 16 6 -20 14 15 -20 17 10 -18 -20 -20 -20 -20 -20 -20 -20 -20 -20 -20 -20 -20 -20 -20 -20 -20 -20 -20 -20 -20 -20 -20 -20 -20 -20 -20 -20 -20 -20
-2 7 13 -20 25 15 10 20 18 23 -14 6 12 21 -20 3 13 -20 -20 -20 -20 -20 -20 -20 -20 -20 -20 -20 -20 -20 -20 -20 -20 -20 -20 -10 -19 -20 -20 -20 -20 -20 -20 -20 -20 -20 -20
2 7 12 -15 -7 20 -6 18 22 23 -2 9 19 17 14 1 -20 -20 -20 -20 -20 -20 -20 -20 -20 -20 -20 -20 -20 -20 -20 -20 -20 -20 -20 -20 -20 -20 -20 -20 -10 -20 -20 -20 -20 -20 -20
3 10 13 -14 -20 -8 -20 21 24 26 20 5 12 2 -8 5 -20 -20 -20 -20 -20 -20 -20 -20 -20 -20 -20 -20 -20 -20 -20 -20 -20 -20 -20 -16 -20 -20 -20 -20 -20 -20 -20 -20 -20 -20 -20
5 11 8 -20 -20 -20 -20 -3 16 32 21 16 22 5 4 -2 -17 -20 -20 -20 -20 -20 -20 -20 -20 -20 -20 -20 -20 -20 -20 -20 -20 -20 -20 -20 -20 -20 -20 -20 -20 -20 -20 -20 -20 -20 -20
6 10 10 -7 -18 -20 -20 -16 6 33 30 13 9 -20 10 -20 -20 -6 -20 -20 -20 -19 -7 -20 -20 -20 -20 -20 -20 -20 -20 -20 -20 -20 -20 -20 -20 -20 -20 -20 -20 -20 -20 -20 -20 -20 -20
7 9 6 7 -3 -20 -20 -20 7 32 34 -4 10 -7 12 -7 -8 -18 -20 -20 -20 -20 -5 -6 -20 -20 -20 -20 -20 -20 -20 -20 -20 12 -20 -20 -20 -20 -20 -20 -20 -20 -20 -20 -20 -20 -20
10 5 5 10 12 1 1 16 16 37 29 -4 5 6 24 7 10 10 -20 -20 -20 -19 -8 -19 -20 -20 -20 -20 -20 -20 -20 -20 -20 -20 -20 -20 -20 -20 -20 -20 -20 -20 -20 -20 -20 -20 -20
6 -20 2 10 14 16 16 34 28 31 27 9 2 17 14 -15 5 3 -14 -20 -20 -20 -11 -20 -20 -20 -20 -20 -18 -20 -20 -20 -20 -9 -0 -18 -18 -20 -20 -20 -20 -20 -20 -20 -20 -20 -20
-20 -20 9 12 7 15 11 21 20 18 17 9 17 33 10 -14 -17 3 -20 -20 -20 -5 -19 -20 -20 -20 -20 -20 -4 -20 -20 -20 -20 -20 -20 -20 -18 -20 -20 -20 -20 -20 -20 -20 -20 -20 -20
-20 -8 5 7 -13 -8 -15 13 21 26 15 -1 15 34 13 3 26 14 -14 -20 -20 -6 -20 -20 -20 -20 -20 22 -9 -20 15 -19 -20 -20 -20 -20 -20 -20 -20 -20 -20 -20 -20 -20 -20 -20 -20
-20 -17 4 2 1 3 7 22 22 14 11 5 18 32 29 14 -12 -12 -20 -20 -20 -20 -20 -20 -20 -20 -20 14 -20 6 36 10 -20 -20 -20 -20 -20 -20 -20 -20 -20 -20 -20 -20 -20 -20 -20

GFSGBSN_prec_radar_060.txt.gz
Reflectivity
13 13 6 -1 3 -1 -4 -5 -1 12 13 13 10 -11 -20 -20 -20 -20 -20 -20 -20 -20 -20 -20 -20 -20 -20 -20 -20 -20 -20 -20 -20 -20 -20 -20 -20 -20 -20 -20 -20 -20 -20 -20 -20 -20 -20
13 16 15 7 3 -20 -20 -19 -13 -20 -4 9 12 4 -15 -20 -20 -20 -20 -20 -20 -20 -20 -20 -20 -20 -20 -20 -20 -20 -20 -20 -20 -20 -20 -20 -20 -20 -20 -20 -20 -20 -20 -20 -20 -20 -20
11 13 15 14 10 4 -10 -20 -20 -20 -20 -20 -18 10 7 -20 -20 -20 -20 -20 -20 -20 -20 -20 -20 -20 -20 -20 -20 -20 -20 -20 -20 -20 -20 -20 -20 -20 -20 -20 -20 -20 -20 -20 -20 -20 -20
11 10 13 14 14 14 13 2 -0 -20 -20 -20 -20 -2 11 7 -19 -20 -20 -20 -20 -20 -20 -20 -20 -20 -20 -20 -20 -20 -20 -20 -20 -20 -20 -20 -20 -20 -20 -20 -20 -20 -20 -20 -20 -20 -20
1 7 10 9 12 14 9 12 2 -20 -20 -20 -20 -9 4 11 10 -19 -20 -20 -20 -20 -20 -20 -20 -20 -20 -20 -20 -20 -20 -20 -20 -20 -20 -20 -20 -20 -20 -20 -20 -20 -20 -20 -20 -20 -20
9 18 -1 -12 14 12 16 13 12 -1 -20 -20 -20 -20 -20 12 11 -2 -20 -20 -20 -20 -20 -20 -20 -20 -20 -20 -20 -20 -20 -20 -20 -20 -20 -20 -20 -20 -20 -20 -20 -20 -20 -20 -20 -20 -20
-20 15 18 6 6 10 10 10 12 9 -11 -20 -20 -20 -20 15 15 11 3 -20 -20 -20 -20 -20 -20 -20 -20 -20 -20 -20 -20 -20 -20 -20 -20 -20 -20 -20 -20 -20 -20 -20 -20 -20 -20 -20 -20
-20 -20 6 15 17 -2 0 9 12 10 4 -20 -20 -20 -20 15 16 10 -18 -15 -20 -20 -20 -20 -20 -20 -20 -20 -20 -20 -20 -20 -20 -20 -20 -20 -20 -20 -20 -20 -20 -20 -2 -14 -20 -20 -20
-20 -20 -20 -16 15 15 15 14 13 11 7 -17 -9 -20 -20 9 16 -18 -20 -20 9 -6 -20 -20 -20 -20 -20 -20 -20 -20 -20 -20 -20 -20 -20 -20 -20 -20 -20 -20 -20 -20 -20 -20 -20 -20 -20
-20 -20 -20 -20 -20 13 18 15 16 15 14 -17 -5 -20 -20 15 12 -4 -16 -20 -19 -7 -20 -20 -20 -20 -20 -20 -20 -20 -20 -20 -20 -20 -20 -20 -20 -20 -20 -20 -20 -20 -20 -20 -20 -20 -20
-20 -20 -20 -20 -20 4 11 11 14 11 12 9 -19 -20 -20 -2 -13 -5 -9 -20 -19 -5 -20 -20 -20 -20 -20 -20 -20 -20 -20 -20 -20 -20 -20 -20 -20 -20 -20 -20 -20 -20 -20 -20 -20 -20 -20
6 -16 -20 -20 -20 -20 -3 18 11 14 14 15 -12 -6 -20 -16 3 0 -18 -20 -20 -20 -20 -20 -20 -20 -20 -20 -20 -20 -20 -20 -20 -20 -20 -20 -20 -20 -20 -20 -20 -20 -20 -20 -20 -20 -20
11 11 -20 -20 -20 -20 -20 17 18 12 16 18 11 -15 -7 -1 -6 -3 -0 -20 12 -20 -20 -20 -20 -20 -20 -20 -20 -20 -20 -20 -20 -20 -20 -20 -20 -20 -20 -20 -20 -20 -20 -20 -20 -20 -20
9 9 11 -20 -20 -20 -20 -0 17 6 12 14 16 -9 -17 -18 3 -14 -2 -20 3 -20 -20 -20 -20 -20 -20 -20 -20 -20 -20 -20 -20 -20 -20 -20 -20 -20 -20 -20 -20 -20 -20 -20 -20 -20 -20
13 13 11 -6 -8 -20 -20 -20 15 12 3 18 18 -5 -15 -20 -5 1 2 12 -20 -20 -20 -20 -20 -20 -20 -20 -20 -20 -20 -20 -20 -20 -20 -20 -20 -20 -20 -20 -20 -20 -20 -20 -20 -20 -20
16 14 14 10 3 -20 -20 -11 -10 21 14 17 17 5 -20 -20 5 22 7 -19 -20 -20 -20 -19 -20 -20 -20 -20 -20 -20 -20 -20 -20 -20 -20 -20 -20 -20 -20 -20 -20 -20 -20 -20 -20 -20 -20
16 17 21 16 -11 -3 -20 -20 -8 27 19 11 16 6 -20 -20 16 25 13 -20 -6 -20 -20 -12 -20 -20 -20 -20 -20 -20 -20 -20 -20 -20 -20 -20 -20 -20 -20 -20 -20 -20 -20 -20 -20 -20 -20
17 13 19 25 6 8 -20 -20 -20 23 16 20 27 7 -20 -20 13 12 7 -20 -20 -20 -20 -20 -20 -20 -20 -20 -20 -20 -20 -20 -20 -20 -20 -20 -20 -20 -20 -20 -20 -20 -20 -20 -20 -20 -20
16 17 13 26 17 9 -11 -20 -0 17 20 2 30 5 19 -20 -0 -9 5 -7 -20 -20 -20 -20 -20 -20 -20 -20 -20 -20 -20 -20 -20 -20 -20 -20 -20 -20 -20 -20 -20 -20 -20 -20 -20 -20 -20
22 21 20 23 29 11 4 -20 5 -8 19 13 29 9 25 24 -20 -20 3 -6 -20 -20 -20 -20 -20 -20 -20 -20 -20 -20 -20 -20 -20 -20 -20 -20 -20 -20 -20 -20 -20 -20 -20 -20 -20 -20 -20
11 17 30 25 32 13 10 -20 3 -17 -17 25 34 11 -2 23 -11 -20 -20 -20 -20 -20 -20 -20 -20 -20 -20 -20 -20 -20 -20 -20 -20 -20 -20 -20 -20 -20 -20 -20 -20 -20 -20 -20 -20 -20 -20
-5 13 34 29 33 24 10 -20 -18 -5 -20 32 36 -1 -2 -18 -20 -2 14 -3 -20 -20 -20 -20 -20 -20 -20 -20 -20 -20 -14 -20 -20 -20 -20 -20 -20 -20 -20 -20 -20 -20 -20 -20 -20 -20 -20
-8 -9 31 34 34 28 22 -20 -20 13 5 36 33 -14 7 -19 -9 1 -20 -20 -20 -20 -20 -20 -20 4 -18 -20 -6 -5 -3 -20 -20 -20 -20 -20 -20 -20 -20 -20 -20 -20 -20 -20 -20 -20 -20
14 -16 24 36 33 31 28 -16 -19 11 -20 18 29 -12 7 -2 6 -20 -20 -20 -20 -20 -20 -19 -17 6 -6 6 5 -9 -20 -20 -20 -20 -20 -20 -20 -20 -20 -20 -20 -20 -20 -20 -20 -20 -20
18 15 25 37 31 30 28 -20 -16 -1 13 -19 -2 15 26 13 -2 -4 -16 -16 -20 -20 -20 5 -9 -20 -11 18 9 -18 -20 -20 -20 -20 -20 -20 -20 -20 -20 -20 -20 -20 -20 -20 -20 -20 -20
21 11 30 36 30 31 16 -17 -20 -20 12 -20 20 -0 3 19 -9 -20 -20 -18 -20 -20 -20 -8 0 -20 -11 -18 15 -15 -20 -17 -20 -20 -20 -20 -20 -20 -20 -20 -20 -20 -20 -20 -20 -20 -20
6 20 34 32 29 27 7 -4 -20 -14 7 -8 29 6 11 30 21 1 -9 -20 -20 -20 -20 -20 7 -19 -13 -16 -19 -9 -20 -20 0 -20 -20 -20 -20 -20 -20 -20 -20 -20 -20 -20 -20 -20 -20
16 33 33 30 33 8 13 15 -20 -5 12 -17 29 24 15 31 -3 -4 -12 -20 -20 -20 -20 -20 2 -6 -20 -20 -20 -20 -20 -20 -20 -5 -20 -20 -20 -20 -20 -20 -20 -20 -20 -20 -20 -20 -20
36 33 29 31 21 18 7 -20 8 3 8 -20 12 35 29 14 -1 3 -17 -20 -20 -20 -20 -20 -20 -20 -20 -20 -20 -20 -20 -20 -20 -19 14 8 -19 -20 -20 -20 -20 -20 -20 -20 -20 -20 -20

GFSGBSN_prec_radar_063.txt.gz
Reflectivity
15 16 12 7 13 16 -1 -15 -1 -10 -0 13 11 -10 9 -16 -7 -20 -20 -20 -20 -20 -20 -20 -20 -20 -20 -20 -20 -20 -20 -20 -20 -20 -20 -20 -20 -20 -20 -20 -20 -20 -20 -20 -20 -20 -20
12 14 14 14 11 7 12 7 -20 -20 -20 -20 7 10 -20 12 -6 -0 -20 -20 -20 -20 -20 -20 -20 -20 -20 -20 -20 -20 -20 -20 -20 -20 -20 -20 -20 -20 -20 -20 -20 -20 -20 -20 -20 -20 -20
11 16 14 10 12 12 11 14 6 1 -13 -20 -20 -10 -20 7 16 3 -5 -20 -20 -20 -20 -20 -20 -20 -20 -20 -20 -20 -20 -20 -20 -20 -20 -20 -20 -20 -20 -20 -20 -20 -20 -20 -20 -20 -20
-20 3 10 13 15 11 16 7 14 10 -2 -20 -20 -20 -20 -15 13 13 8 -20 -20 -20 -20 -20 -20 -20 -20 -20 -20 -20 -20 -20 -20 -20 -20 -20 -20 -20 -20 -20 -20 -20 -20 -20 -20 -20 -20
-1 -4 5 8 14 14 12 13 12 10 9 -3 -20 -20 -20 11 12 9 7 -20 -20 -20 -20 -20 -20 -20 -20 -20 -20 -20 -20 -20 -20 -20 -20 -20 -20 -20 -20 -20 -20 -20 -20 -20 -20 -20 -20
-20 -20 -20 -19 7 14 11 13 14 12 12 -3 -20 -20 -20 -20 12 9 4 -20 -20 -20 -20 -20 -20 -20 -20 -20 -20 -20 -20 -20 -20 -20 -20 -20 -20 -20 -20 -20 -20 -20 -20 -20 -20 -20 -20
-20 -20 -20 -20 -9 15 11 2 12 13 16 7 -4 -20 -20 -20 -20 11 -6 -20 -20 -20 -20 -20 -20 -20 -20 -20 -20 -20 -20 -20 -20 -20 -20 -20 -20 -20 -20 -20 -20 -20 -20 -20 -20 -20 -20
-20 -20 -20 -20 -20 -12 11 12 8 12 12 16 7 -20 -20 -20 -20 14 -20 -20 -20 -20 -20 -20 -20 -20 -20 -20 -20 -20 -20 -20 -20 -20 -20 -20 -20 -20 -20 -20 -20 -20 -20 -20 -20 -20 -20
7 -20 -20 -20 -20 -20 -20 3 21 11 14 11 11 -20 -0 -20 -18 8 -20 -20 -20 -20 -20 -20 -20 -20 -20 -20 -20 -20 -20 -20 -20 -20 -20 -20 -20 -20 -20 -20 -20 -20 -20 -20 -20 -20 -20
4 6 4 -20 -20 -20 -20 -20 13 11 13 16 14 -8 -3 -20 -20 -20 -20 -20 -20 -12 -20 -19 6 -20 -20 -20 -20 -20 -20 -20 -20 -20 -20 -20 -20 -20 -20 -20 -20 -20 -20 -20 -20 -20 -20
-20 -20 4 8 -20 -20 -20 -20 -20 18 11 12 16 8 -20 8 -20 -20 -20 -20 -20 -20 -11 -20 -4 -20 -20 -20 -20 -20 -20 -20 -20 -20 -20 -20 -20 -20 -20 -20 -20 -20 -20 -20 -20 -20 -20
7 7 4 9 14 -19 -20 -20 -20 -20 17 9 13 16 -3 -2 8 -3 -20 -20 -20 -20 -17 -20 -20 -20 -20 -20 -20 -20 -20 -20 -20 -20 -20 -20 -20 -20 -20 -20 -20 -20 -20 -20 -20 -20 -20
-9 -20 -16 6 14 11 -20 -20 -20 -20 12 12 12 17 11 5 0 -10 -16 -16 -6 -14 -20 -20 -20 -20 -20 -20 -20 -20 -20 -20 -20 -20 -20 -20 -20 -20 -20 -20 -20 -20 -20 -20 -20 -20 -20
15 13 13 -2 1 18 2 -20 -20 -20 1 19 12 16 -7 -17 -20 -11 -12 11 -2 -20 -20 -20 -20 -20 -20 -20 -20 -20 -20 -20 -20 -20 -20 -20 -20 -20 -20 -20 -20 -20 -20 -20 -20 -20 -20
15 13 13 13 9 16 10 11 -20 -20 -20 27 17 5 11 -20 -20 3 -15 21 -19 -20 -20 -20 -18 -6 -20 -20 -20 -20 -20 -20 -20 -20 -20 -20 -20 -20 -20 -20 -20 -20 -20 -20 -20 -20 -20
16 15 15 11 12 18 17 11 -4 -20 -20 20 10 -1 15 -20 -20 14 17 8 -16 -20 -20 -20 -20 -10 -20 -20 -20 -20 -20 -20 -20 -20 -20 -20 -20 -20 -20 -20 -20 -20 -20 -20 -20 -20 -20
14 14 13 18 15 13 15 10 10 -20 -20 21 11 18 12 -20 9 13 13 7 -20 -20 -20 -1 -20 -20 -20 -20 -20 -20 -20 -20 -20 -20 -20 -20 -20 -20 -20 -20 -20 -20 -20 -20 -20 -20 -20
11 20 19 12 11 20 19 13 5 -15 -20 24 25 25 2 -20 5 12 1 -19 -16 -20 -20 3 -20 -20 -20 -20 -20 -20 -20 -20 -20 -20 -20 -20 -20 -20 -20 -20 -20 -20 -20 -20 -20 -20 -20
1 -7 19 18 16 17 24 22 7 -14 -13 18 28 22 15 -20 5 -9 -2 0 -17 -20 -20 -8 -13 -20 -20 -20 -20 -20 -20 -20 -20 -20 -20 -20 -20 -20 -20 -20 -20 -20 -20 -20 -20 -20 -20
-14 -17 -3 20 18 19 27 30 19 -12 2 10 18 26 34 17 -20 -20 0 -6 6 -20 -20 -20 -5 -20 -19 -20 -20 -20 -20 -20 -20 -20 -20 -20 -20 -20 -20 -20 -20 -20 -20 -20 -20 -20 -20
-20 -2 -4 28 22 25 27 31 30 -10 2 15 25 29 17 12 -2 -20 -20 -20 -20 -13 -20 -19 -8 -20 -20 -19 -20 -20 -20 -9 -20 -20 -20 -20 -20 -20 -20 -20 -20 -20 -20 -20 -20 -20 -20
9 -8 -14 -3 23 28 31 32 33 12 12 22 30 30 -20 5 -20 -12 1 -20 -20 -20 -20 -20 -18 -11 -20 -19 -8 -20 -20 -20 -20 -20 -20 -20 -20 -20 -20 -20 -20 -20 -20 -20 -20 -20 -20
10 -1 11 -6 34 32 32 33 35 24 8 29 8 -20 -20 -20 -2 -2 -20 -20 -20 -17 -20 -20 -18 16 3 -2 6 -17 -20 -20 -20 -20 -20 -20 -20 -20 -20 -20 -20 -19 -20 -20 -20 -20 -20
16 11 12 4 19 35 37 30 35 27 -12 -15 12 -20 5 2 8 -15 -20 -20 -20 -20 -20 -20 -20 13 14 11 16 -15 -20 -20 -20 -20 -20 -20 -20 -20 -20 -20 -20 -19 -20 -20 -20 -20 -20
21 12 15 19 2 24 37 29 35 27 -14 -8 -4 -20 17 11 7 -19 -16 -20 1 -20 -20 -20 -3 15 13 2 7 1 -20 -20 -20 -20 -20 -20 -20 -20 -20 -20 -20 -20 -19 -20 -20 -20 -20
29 20 13 18 -20 26 37 26 34 24 7 -18 -20 -20 16 22 -19 -20 -13 -20 -14 -11 -20 -20 -18 17 10 2 -20 27 19 -20 -20 -20 -20 -20 -20 -20 -20 -20 -20 -20 -20 -20 -20 -20 -20
25 18 17 18 -9 37 32 30 33 22 13 -20 -20 -20 9 -13 12 -16 -0 -20 -15 -20 -20 -20 -20 1 -7 -15 -20 -20 11 -5 20 -20 -20 -20 -20 -20 -20 -20 -20 -20 -20 -20 -20 -20 -20
26 22 15 -2 -20 35 27 36 28 21 10 -11 -10 -18 6 -4 -20 25 -12 -20 -14 -20 -20 -20 -20 -8 5 -20 -20 -20 -20 11 -9 -20 -20 -10 -12 -20 -20 -20 -20 -20 -20 -20 -20 -20 -20
18 12 6 8 15 35 31 33 21 16 14 17 4 -4 9 19 10 24 24 -20 -20 -20 -20 -20 -20 -17 1 -20 -20 -20 -20 -20 4 -10 -20 -10 -12 -20 -3 -20 -20 -20 -20 -20 -20 -20 -20

GFSGBSN_prec_radar_069.txt.gz
Reflectivity
-20 -20 -20 4 12 -4 -20 -2 4 2 -6 -20 -20 -20 -20 -20 -20 -20 -20 -20 -20 -20 -20 -20 -20 -20 -20 -20 -20 -20 -20 -20 -20 -20 -20 -20 -20 -20 -20 -20 -20 -20 -20 -20 -20 -20 -20
-11 -20 -20 -20 -20 -0 9 4 -6 -14 -7 -2 -20 -20 -20 -20 -20 -20 -20 -20 -20 -20 -20 -20 -20 -20 -20 -20 -20 -20 -20 -20 -20 -20 -20 -20 -20 -20 -20 -20 -20 -9 -20 -20 -20 -20 -20
-20 -20 -20 -20 -20 -20 -19 5 0 -18 -19 -2 -6 -9 -20 -20 -20 -20 -20 -20 -20 -20 -20 -20 -20 -20 -20 -20 -20 -20 -20 -20 -20 -20 -20 -20 -20 -20 -20 -20 -20 -20 -20 34 28 9 -17
-20 -20 -20 -20 -20 -20 -20 -20 -20 -0 -20 -20 -4 6 -20 -20 -20 -20 -20 -20 -20 -20 -20 -20 -20 -20 -20 -20 -20 -20 -20 -20 -20 -20 -20 -20 -20 -20 -20 -20 -20 -20 -18 4 13 -9 -20
12 2 -20 -20 -20 -20 -20 -20 -20 -10 -12 -20 -20 -6 -14 -20 -20 -20 -20 -20 -20 -20 -20 -20 -20 -20 -20 -20 -20 -20 -20 -20 -20 -20 -20 -20 -20 -20 -20 -20 -20 -10 -5 -11 -7 -14 -20
-20 -16 10 0 -20 -20 -20 -20 -11 -20 9 -5 -20 -19 4 -19 -20 -20 -20 -20 -20 -20 -20 -20 -20 -20 -20 -20 -20 -20 -20 -20 -20 -20 -20 -20 -20 -20 -20 -20 -20 8 5 -7 -20 4 -20
-20 -20 -20 -20 5 2 -20 -20 -20 -20 -20 7 2 -20 -20 1 -20 -20 -20 -20 -20 -20 -20 -20 -20 -20 -20 -20 -20 -20 -20 -20 -20 -20 -20 -20 -20 -20 -20 -20 -20 -20 -20 -20 4 -20 -20
-20 -20 -20 -20 -20 -20 -20 -16 -20 -20 -20 -20 -3 2 -20 6 -20 -20 -3 -20 -20 -20 -20 -20 -20 -20 -20 -20 -20 -20 -20 -20 -20 -20 -20 -20 -20 -20 -20 -20 -20 -20 -20 -20 -20 -20 -20
-20 -20 -20 -20 -20 -20 -1 1 -20 -20 -20 -20 -20 -3 -20 9 -20 -20 -20 -20 -20 -20 -20 -20 -20 -20 -20 -20 -20 -20 -20 -20 -20 -20 -20 -20 -20 -20 -20 -20 -20 -20 -20 -15 -18 -12 -20
-20 -20 -20 -20 -9 -6 -20 -0 3 -20 -20 -20 -20 -20 -13 7 -20 -20 -20 -20 -20 -20 -20 -20 -20 -20 -20 -20 -20 -20 -20 -20 -20 -20 -20 -20 -20 -20 -20 -20 -20 -20 -20 -20 -20 -20 27
-20 -20 -20 -20 -6 -1 -9 -20 -20 -20 -20 -20 -20 -20 -8 -7 -20 -7 -13 -20 -20 -20 -20 -20 -20 -20 -20 -20 -20 -20 -20 -20 -20 -20 -20 -20 -20 -20 -20 -20 -20 -20 -20 -20 -20 -20 -20
-20 -20 -20 -14 1 -1 -1 3 -20 6 -20 -20 -20 -20 -20 -10 -12 -20 -9 7 -18 -20 -20 -20 -20 -20 -20 -20 -20 -20 -20 -20 -20 -20 -20 -20 -20 -20 -20 -20 -20 -20 -20 -20 -20 -20 -20
-20 -20 -14 -5 -1 13 10 14 -7 -3 13 -20 -20 -20 -20 -11 -9 -20 16 22 -20 -20 -20 -20 -20 -20 -20 -20 -20 -20 -20 -20 -20 -20 -20 -20 -20 -20 -20 -20 -20 -20 -20 -9 -20 -5 -14
-19 -20 -16 -3 -20 -20 -3 3 -20 -7 18 13 -20 -20 -20 -20 -20 -20 18 23 -20 -20 -20 -20 -20 -20 -20 -16 -20 -13 -20 -20 -20 -20 -20 -20 -20 -20 -20 -20 -20 -20 -20 -8 -6 17 8
11 10 10 6 8 5 3 11 10 13 -12 12 17 -15 -19 -15 -20 4 22 28 -20 -20 -20 -20 -20 -20 -20 -3 -20 5 -20 -20 -20 -20 -20 -20 -20 -20 -20 -20 -20 -20 -20 -20 -6 -20 -20
14 13 11 12 11 9 6 9 13 15 17 9 13 17 -10 -20 -17 21 31 24 -20 -20 -20 -20 -20 -20 -20 9 3 3 1 -20 -20 -20 -20 -20 -20 -20 -20 -20 -20 -20 -20 -20 -20 -20 -6
13 15 14 11 13 10 10 4 13 17 20 16 19 19 -13 11 23 19 14 4 -20 -20 -20 -20 -20 -20 -20 -16 -6 -19 16 -20 -14 -20 -20 -20 -20 -20 -20 -20 -20 -20 -20 -20 -20 -9 -9
17 16 13 13 12 15 10 10 13 13 11 24 22 26 -9 22 1 23 5 -18 -20 -20 -20 -20 -20 -20 -20 -19 -9 -20 17 11 1 4 -20 -20 -20 -20 -20 -20 -20 -20 -20 -20 -20 -20 -20
13 11 11 11 12 14 10 11 12 13 27 29 33 23 -0 16 2 18 -20 -20 -20 -20 -20 -20 -20 -20 -20 -20 -1 -20 0 16 9 -20 -20 -20 -20 -20 -20 -20 -20 -20 -20 -20 -20 -20 -19
8 9 10 13 14 12 12 12 17 23 30 33 34 26 17 24 -20 -20 -20 -20 -20 -20 -7 -16 3 -20 -20 -20 -20 -7 -20 19 15 -3 -20 -20 -20 -20 -20 -20 -20 -20 -20 -20 -20 -20 -20
9 11 12 14 14 15 12 12 11 27 32 32 37 16 -11 5 9 -20 -20 -20 -20 -20 -20 -20 20 -9 -20 -20 -20 -19 11 15 12 7 -20 -20 -20 -20 -20 -20 -20 -20 -20 -20 -20 -20 -20
13 7 1 -20 10 25 17 10 15 27 32 34 37 4 4 4 7 -11 -4 -20 -20 -20 -20 -20 -5 -12 -20 -20 -20 -7 8 10 15 1 -6 -20 -20 -20 -20 -20 -20 -20 -20 -20 -20 -20 -20
3 1 1 -14 -18 -12 17 19 1 20 35 39 33 -17 10 -15 9 10 -9 -20 -20 -20 -20 -20 -20 -2 4 -17 -4 -20 -4 9 9 -9 -20 -20 -20 -20 -20 -20 -20 -20 -20 -20 -20 -20 -20
-11 10 -20 -20 -20 -9 -8 22 17 29 36 37 24 -10 18 10 15 -20 -20 -20 -20 -20 -20 -20 -18 -20 -20 14 -20 9 -5 0 15 -3 -15 -20 -20 -20 -20 -20 -15 -20 -20 -20 -20 -20 -20
21 10 9 3 -20 -20 -3 -20 37 23 38 33 -4 14 3 17 -12 -17 -20 -20 -20 -20 -20 -20 -19 9 -2 29 -20 -20 15 3 1 8 -20 -20 -20 11 18 -20 -20 -20 -20 -20 -20 -20 -20
16 25 5 12 16 6 -5 6 -9 39 38 33 15 -17 13 12 -19 -18 -9 -20 -20 -20 -20 -17 -20 -1 21 -5 13 -20 -20 17 17 13 10 -19 -18 -19 -20 -20 -20 -20 -18 -2 -5 -20 -17
22 11 17 26 12 15 10 -8 15 4 32 37 26 1 13 -6 -17 15 11 2 -20 -20 -20 -20 6 6 -16 -7 19 7 -20 -4 10 34 -19 -18 -20 -20 -4 -17 -20 -20 -20 -2 -3 -16 -20
12 10 12 4 22 14 20 7 18 -11 19 37 32 -6 -3 -3 -18 11 15 12 -20 -20 10 -20 20 15 24 18 -6 -20 9 -20 -20 -15 22 -20 -6 -19 7 4 -6 -20 -19 1 -2 -20 -20
15 21 15 -20 -20 18 16 13 -16 6 19 35 36 3 7 16 8 15 -9 -17 -20 -20 -20 -20 28 -19 -20 2 -2 -20 17 -20 -20 -19 1 30 7 28 -5 -19 -20 -20 -20 -19 -20 -20 -20

GFSGBSN_prec_radar_072.txt.gz
Reflectivity
-20 -20 -4 3 -16 -20 -5 5 -12 -20 -20 -20 -20 -20 -20 -20 -20 -20 -20 -20 -20 -20 -20 -20 -20 -20 -20 -20 -20 -20 -20 -20 -20 -20 -20 -20 -20 -20 -20 -20 -20 -20 -20 -20 -20 -20 -20
-20 -20 -20 -20 4 11 -20 -20 -14 -9 -20 -20 -20 -20 -20 -20 -20 -20 -20 -20 -20 -20 -20 -20 -20 -20 -20 -20 -20 -20 -20 -20 -20 -20 -20 -20 -20 -20 -20 -20 -20 -20 -20 -20 -12 -13 -20
-20 -20 -20 -20 -20 7 8 -3 -20 -15 -4 -20 -20 -20 -20 -20 -20 -20 -20 -20 -20 -20 -20 -20 -20 -20 -20 -20 -20 -20 -20 -20 -20 -20 -20 -20 -20 -20 -20 -20 -20 -20 -20 -9 -5 4 -9
1 12 -15 -20 -20 -20 2 -0 -12 -20 -20 1 2 -20 -20 -20 -20 -20 -20 -20 -20 -20 -20 -20 -20 -20 -20 -20 -20 -20 -20 -20 -20 -20 -20 -20 -20 -20 -20 -20 -20 -20 -20 -20 -19 -20 -20
6 5 4 12 -8 -20 -20 -20 -20 -20 -20 -20 3 -13 -20 -20 -20 -20 -20 -20 -20 -20 -20 -20 -20 -20 -20 -20 -20 -20 -20 -20 -20 -20 -20 -20 -20 -20 -20 -20 -20 -20 -20 2 -6 -20 -20
-2 -10 -5 -12 -7 -2 -12 -20 -20 -15 -20 -20 -20 -4 -8 -20 -19 -20 -20 -20 -20 -20 -20 -20 -20 -20 -20 -20 -20 -20 -20 -20 -20 -20 -20 -20 -20 -20 -20 -20 -20 2 -20 -2 -17 5 -20
-20 -20 -20 -20 -20 -20 -20 7 -0 -20 -17 -19 -20 -20 -20 -19 -20 -20 -20 -20 -20 -20 -20 -20 -20 -20 -20 -20 -20 -20 -20 -20 -20 -20 -20 -20 -20 -20 -20 -16 -20 -20 -20 -20 -8 -7 -20
-20 -20 -20 -20 -20 -20 -20 -20 4 -20 -20 -20 -20 -20 -20 -20 -20 -20 -20 -20 -20 -20 -20 -20 -20 -20 -20 -20 -20 -20 -20 -20 -20 -20 -20 -20 -20 -20 -20 -20 -20 -20 -20 -20 -20 -7 -20
-20 -20 -20 -20 -20 -20 -20 -12 -20 3 -8 -20 -20 -20 -20 -20 -20 -20 -20 -20 -20 -20 -20 -20 -20 -20 -20 -20 -20 -20 -20 -20 -20 -20 -20 -20 -20 -20 -20 -20 -20 -20 -20 -20 -20 -20 -20
-20 -20 -20 -20 -20 -20 -20 -1 -3 -20 7 -17 -20 -20 -20 -20 -20 -20 -20 -20 -20 -20 -20 -20 -20 -20 -20 -20 -20 -20 -20 -20 -20 -20 -20 -20 -20 -20 -20 -20 -20 -20 -20 -20 -20 -20 -19
-20 -20 -20 -20 -20 -20 -19 -19 -20 -20 -20 8 -20 -20 -20 -20 -20 -20 -19 -20 -20 11 -20 -20 -20 -20 -20 -20 -20 -20 -20 -20 -20 -20 -20 -20 -20 -20 -20 -20 -20 -20 -20 -20 -20 -20 -20
-20 -9 -4 -20 -20 -10 -12 -20 -19 -20 -20 -20 -12 -20 -20 -20 -15 -20 -5 -5 -11 -16 -20 -20 -20 -20 -20 -20 -20 -20 -20 -20 -20 -20 -20 -20 -20 -20 -20 -20 -20 -20 -20 -20 -20 -20 -20
-20 -20 -20 -5 -8 -16 3 8 -19 7 -10 -20 -5 -20 -20 -20 -20 -20 -20 -11 16 -20 -20 -20 -20 -20 -20 -20 -20 -20 -20 -20 -20 -20 -20 -7 -20 -20 -20 -20 -20 -20 -20 -20 -4 -20 -20
-20 -20 -17 -3 4 2 -19 -19 -20 10 10 12 11 -3 -20 -20 -20 -20 -20 16 17 -20 -20 -20 -20 -20 -20 -20 -20 -20 -20 -20 -20 -20 -20 -4 -20 -20 -20 -20 -20 -20 -20 -19 21 12 -0
-20 1 6 -2 -3 -5 7 -13 3 -16 -17 19 0 18 15 -18 -20 0 17 14 4 -20 -20 -20 -20 -20 -20 -20 -20 -20 -20 -20 -20 -17 -18 -20 -20 -20 -20 -20 -20 -20 -20 -20 15 5 -15
5 2 8 3 2 5 5 6 6 11 12 16 19 18 14 -19 -20 15 17 16 -20 -20 -20 -20 -16 -20 -20 -20 -20 -20 -20 -20 -20 -3 10 10 -5 -20 -20 -20 -20 -19 -4 -16 -20 -19 14
11 7 11 9 7 12 8 8 9 9 12 19 23 26 14 13 -13 19 12 5 -20 -20 -20 -20 -20 -20 -20 3 -20 -20 -20 -19 9 22 23 -2 -20 -20 -20 -20 -20 -20 -20 -16 -20 -20 -20
8 11 9 7 6 9 4 -3 6 11 26 32 31 28 7 12 15 7 2 -20 -20 -20 -20 -20 -20 -8 -20 -19 20 -20 -20 -19 12 17 27 -8 -20 -20 -20 -20 -20 -20 -20 -20 -20 -20 5
12 7 6 3 3 4 7 10 10 11 25 33 36 29 -1 -10 7 5 -11 -20 -20 -20 -20 -20 -20 -15 14 -17 -16 -20 -20 -19 25 20 20 4 -19 -20 3 -20 -20 -20 -20 -20 -20 -20 -20
8 2 4 1 5 9 15 10 9 12 22 33 35 28 18 23 -20 -1 6 -8 -11 -20 -20 -20 -20 -2 21 19 -8 -1 -19 -15 8 11 10 20 -10 -20 -20 -12 -17 -18 -20 -9 -7 -13 -20
12 9 14 15 15 14 13 14 11 16 23 33 37 23 -10 25 11 3 -20 -20 -20 -20 -20 -20 -20 -18 26 29 -17 4 17 -10 -6 8 13 17 6 -20 -20 -20 -14 -20 -20 -20 -20 -16 -20
13 15 13 11 12 14 15 15 12 13 27 34 34 6 4 -0 4 11 4 -5 -20 -20 -20 -20 -20 -20 -1 23 28 -9 -20 16 -20 -7 15 8 4 -10 -20 -20 -20 -1 5 -20 -20 -20 -20
6 11 5 8 13 23 19 18 26 24 28 40 33 -12 9 -12 23 6 -20 -14 -20 -20 -20 -20 -20 -20 -12 3 16 25 16 10 -12 -19 3 -17 -20 -15 -9 -20 -20 -20 -19 -13 -20 -20 -20
16 12 14 13 -4 -20 7 23 29 21 31 36 27 5 3 26 -18 4 -2 -20 -20 -20 -20 -20 -20 -20 -20 27 33 29 21 27 -7 -17 15 -7 -19 -20 2 -20 -20 -20 -20 -18 -20 -20 -20
8 10 11 10 0 15 7 -4 16 29 26 31 26 1 5 12 5 -17 6 -20 -20 7 -10 -20 -20 -20 -20 16 26 -7 35 8 -20 -20 18 10 4 18 -8 5 -20 -20 -20 -20 -20 -20 -20
5 2 9 -8 14 10 7 22 25 15 37 25 34 3 11 11 2 -11 11 -12 -20 -20 -20 -20 -20 -20 -17 -20 20 29 26 -20 18 -19 -11 -1 5 -20 26 -1 -17 -20 -20 -20 -20 -20 -20
12 11 14 15 10 -4 12 11 -19 25 30 36 36 22 18 10 -12 9 20 -20 -20 -20 -20 -20 -20 -9 25 25 -3 -20 14 -18 -10 20 -4 -1 -8 -20 -2 11 -14 -20 -12 -15 -15 -20 -17
-2 -17 -20 -3 17 14 18 16 1 19 23 41 39 21 15 25 -1 11 15 -5 17 -14 -20 -20 -12 -16 24 25 23 12 3 -20 -20 -20 -20 -14 4 2 16 18 -0 -2 8 3 -13 11 -2
7 5 13 5 29 29 18 11 14 21 16 29 41 22 25 19 19 31 5 -19 8 -20 -20 -20 -20 -6 -20 20 18 14 12 -20 -20 -20 -20 -11 33 23 6 -18 -20 4 14 19 20 4 -20

GFSGBSN_prec_radar_075.txt.gz
Reflectivity
-20 -20 -20 -20 -20 -20 -18 4 5 -9 -6 -20 -20 -20 -20 -20 -20 -20 -20 -20 -20 -20 -20 -20 -20 -20 -20 -20 -20 -20 -20 -20 -20 -20 -20 -20 -20 -20 -20 -20 -20 -20 -18 -20 -20 -20 -20
-20 -20 -20 -20 -20 -20 -20 -20 -20 -6 2 -2 -9 -20 -20 -20 -20 -20 -20 -20 -20 -20 -20 -20 -15 -11 -20 -20 -20 -20 -20 -20 -20 -20 -20 -20 -20 -20 -20 -20 -20 -20 -20 -20 -20 -20 -20
8 13 8 -20 -20 -20 -20 -20 -20 -20 -18 8 -20 -6 -20 -20 -20 -20 -20 -20 -20 -20 -20 -20 -20 4 -20 -20 -20 -20 -20 -20 -20 -20 -20 -20 -20 -20 -20 -20 -20 -20 -20 -20 -20 -20 -20
-20 -20 -20 -20 8 -20 -20 -20 -20 -20 -20 1 4 5 -5 -20 -17 -20 -20 -20 -20 -20 -20 -20 -20 -20 -20 -20 -20 -20 -20 -20 -20 -20 -20 -20 -20 -20 -20 -20 -20 -20 -20 -20 -20 -20 -20
-10 -9 -20 -20 -20 -20 -6 -12 -13 -9 -19 -11 6 -15 1 -20 -20 -18 -20 -20 -20 -20 -20 -20 -1 -20 -20 -20 -20 -20 -20 -20 -20 -20 -20 -20 -20 -20 -20 -20 -20 -20 -20 -20 -18 -20 -20
2 9 -4 -20 -20 -20 -20 -15 -6 -18 -19 -20 -20 -5 5 -5 -20 -20 -20 -20 -20 -20 -20 -20 -20 -20 -20 -20 -20 -20 -20 -20 -20 -20 -20 -20 -20 -20 -20 -20 -20 -20 -20 -20 -13 -20 -20
3 -1 -12 -20 -20 -20 -20 -3 -20 -17 -16 -20 -20 -20 -20 -20 -19 -11 -20 -20 -20 -20 -20 -20 -20 -20 -20 -20 -20 -20 -20 -20 -20 -20 -20 -20 -20 -20 -20 -20 -20 -20 -20 -20 -20 -15 -4
5 -2 -20 -20 -20 -20 -20 -8 -9 -18 -20 -19 -20 -20 -20 -20 -20 -20 -20 -12 -20 -20 -20 -20 -20 -20 -20 -20 -20 -20 -20 -20 -20 -20 -20 -20 -20 -20 -20 -20 -20 -17 -20 -20 -20 -17 -20
9 -20 -20 -20 -20 -20 -20 -13 -1 3 2 -9 4 -14 -20 -20 -20 -20 -20 -20 -20 -20 -20 -20 -20 -20 -20 -20 -20 -20 -20 -20 -20 -20 -20 -20 -20 -20 -20 -20 -20 -20 -20 -20 -20 -20 -20
-13 5 -20 -15 -20 -20 -20 -20 -5 -1 -20 -20 3 -17 -20 -20 -20 -20 -20 -20 -20 -20 -16 -20 -20 -20 -20 -20 -20 -20 -20 -20 -20 -20 -20 -20 -20 -20 -20 -20 -20 -20 -20 -20 -20 -20 -20
11 9 -18 -20 -19 -1 -0 -15 -20 -20 -20 -20 -20 -19 -20 -20 -20 -20 -20 -20 -20 -8 -20 -20 -20 -20 -20 -20 -20 -20 -20 -20 -20 -20 -20 -20 -20 -20 -20 -20 -20 -20 -20 -20 -20 -20 -20
7 2 1 -7 -6 -4 1 -2 -20 -20 -20 -20 -20 -14 -13 -20 -20 -20 -20 -20 -20 2 -18 -20 -20 -20 -20 -20 -20 -20 -20 -20 -20 -20 -20 -20 -20 -20 -20 -20 -20 -20 -20 -20 -20 -20 -20
-20 -20 -11 -9 -20 -20 -20 -20 -19 -9 -9 -20 -20 -20 6 -20 -20 -20 -20 1 -17 -1 -20 -20 -20 -20 -20 -20 -20 -20 -20 -20 -20 -20 -20 -20 -20 -20 -20 -20 -20 -20 -20 -20 -20 -20 -20
2 2 3 4 3 5 4 -20 -16 -20 -8 -20 -16 -13 -3 -19 -20 -20 6 -10 10 -20 -20 -20 -20 -20 -20 -20 -20 -20 -20 -20 -20 -20 -20 -20 -20 -20 -20 -20 -20 -20 -20 -20 -20 -20 -20
-20 -20 -20 -20 -20 -7 3 7 -5 7 -11 -18 -11 -20 12 -20 -20 -20 11 17 -16 -20 -20 -20 -20 -20 -20 -20 -20 -20 -20 -20 -20 -20 -20 -20 -20 -2 -20 -20 -20 -20 -20 -20 -20 -20 -18
-3 -12 -20 -20 -20 -4 -16 -20 -16 13 15 16 17 18 6 -20 -20 -6 5 -20 -19 -20 -20 -20 -20 -20 -4 20 -14 -20 -20 -20 -20 -20 -20 -20 -20 8 -8 -20 -20 -20 -19 -20 -20 -10 -14
3 -2 -2 -20 -11 -3 11 13 16 13 16 20 23 28 10 -18 13 9 8 -3 -20 -20 -20 -20 -20 -18 -3 -19 25 18 -20 -20 -20 -20 -16 -18 -14 -20 4 -20 -20 -20 -20 -20 -20 -17 -20
3 -1 1 6 9 14 5 8 7 15 26 33 36 31 18 2 26 17 -20 -19 -20 -20 -20 -20 -20 -20 -20 4 10 -12 10 -20 -20 -20 -20 3 -20 -20 -8 -20 -20 -20 -20 -20 -20 -20 -20
1 1 -5 10 11 10 9 13 15 28 34 33 36 28 18 -14 10 2 -5 -2 -18 -20 -20 -20 -20 -20 -17 -15 11 11 15 -20 -18 -20 -20 -20 7 17 10 -20 -20 -20 -20 -20 -20 -20 -20
2 7 12 13 13 14 14 17 27 31 34 35 34 20 27 14 7 1 -6 -7 -12 -20 -20 -20 -20 -12 16 14 15 9 29 15 -9 -20 -20 4 22 15 -14 -20 -12 -19 -20 -20 -20 -20 -20
14 13 18 22 21 23 26 27 28 32 34 38 37 17 5 20 12 -9 -20 -20 -15 0 -20 -20 -20 -20 6 -18 26 7 28 15 30 16 -11 -20 -20 9 -5 -6 16 -20 -20 -20 -20 -20 -20
13 10 9 10 13 13 14 17 25 30 34 38 32 15 10 1 -11 12 6 9 -20 -20 -20 -20 -20 -20 -20 -20 -11 11 15 23 -14 -3 -20 -20 -20 11 3 9 -17 27 1 -20 -20 -20 -20
13 12 10 8 6 7 7 3 8 22 32 39 30 7 12 -9 2 -3 3 -14 -20 -20 -20 -20 -20 -20 -20 -20 -20 10 13 37 26 35 10 -17 -20 8 14 -0 9 -2 1 -20 -20 -20 -20
13 12 10 8 8 8 13 10 12 14 27 34 25 12 -6 18 -17 3 -2 -17 -20 -20 -20 -20 -20 -20 -20 -20 -16 4 4 35 6 9 -20 -20 -20 -14 14 13 13 -4 -19 -20 -20 -20 -9
-2 -14 9 12 15 18 16 -15 4 24 27 30 30 9 6 -20 7 -4 1 -9 -20 -20 -20 -20 -20 -20 -20 -20 -3 18 9 5 29 13 -20 -20 0 3 -8 1 7 -20 -19 -8 -20 -20 -20
10 1 -0 -19 -20 6 -19 17 10 -13 21 26 30 22 1 -18 -20 -5 -3 -1 -20 -20 -20 -20 -20 -20 -20 -20 -20 5 10 11 17 35 18 11 2 -19 -20 -14 -20 -20 -5 13 1 -20 -20
10 10 12 13 14 4 -16 -8 -0 -11 22 30 32 28 13 17 -1 -16 14 -20 -20 -20 -20 -20 -20 -20 -20 -20 -20 13 -11 2 29 25 6 -4 -2 2 -20 -20 -20 -20 10 16 3 -20 -19
9 12 14 16 15 12 16 2 11 -19 13 36 36 26 24 28 21 -12 19 -12 -17 -15 0 -20 -2 -20 -20 -20 -20 -20 -16 -11 -1 -20 16 -20 -15 25 8 -4 -2 -20 -4 15 -5 -20 -4
14 3 4 12 -13 15 16 18 10 -6 17 27 39 37 25 25 27 4 27 -16 -20 -20 -20 -20 -20 -20 -20 -20 -20 -20 9 -20 -20 -20 -20 2 10 8 -17 -16 -20 -8 19 6 -20 -16 7